This is the latest recevied weather packets stored in our database for station/object HB9MIR-13. If no packets are shown the sender has not sent any weather packets the latest 10 day(s).
| Time | Temp. | Humidity | Pressure | Rain* | Wind** | Luminosity | Snow |
|---|---|---|---|---|---|---|---|
| 1777238106 | 8.89° C | 66% | 1019.7 hPa | 0 mm | - | 0 W/m² | - |
| 1777237418 | 9.44° C | 63% | 1019.7 hPa | 0 mm | - | 0 W/m² | - |
| 1777236730 | 9.44° C | 61% | 1019.5 hPa | 0 mm | - | 0 W/m² | - |
| 1777236042 | 9.44° C | 62% | 1019.5 hPa | 0 mm | - | 0 W/m² | - |
| 1777235305 | 10° C | 60% | 1019.4 hPa | 0 mm | - | 0 W/m² | - |
| 1777234604 | 10° C | 58% | 1019.3 hPa | 0 mm | - | 0 W/m² | - |
| 1777233916 | 10.56° C | 57% | 1019.2 hPa | 0 mm | - | 0 W/m² | - |
| 1777233230 | 10.56° C | 59% | 1019.1 hPa | 0 mm | - | 0 W/m² | - |
| 1777232542 | 10.56° C | 58% | 1019.1 hPa | 0 mm | - | 0 W/m² | - |
| 1777231805 | 11.11° C | 57% | 1018.9 hPa | 0 mm | - | 0 W/m² | - |
| 1777231104 | 11.67° C | 51% | 1018.7 hPa | 0 mm | - | 0 W/m² | - |
| 1777230416 | 12.22° C | 51% | 1018.5 hPa | 0 mm | - | 0 W/m² | - |
| 1777229729 | 12.22° C | 52% | 1018.3 hPa | 0 mm | - | 0 W/m² | - |
| 1777229042 | 12.78° C | 47% | 1018.1 hPa | 0 mm | - | 1 W/m² | - |
| 1777228355 | 13.89° C | 48% | 1017.8 hPa | 0 mm | - | 3 W/m² | - |
| 1777227668 | 13.89° C | 44% | 1017.6 hPa | 0 mm | - | 8 W/m² | - |
| 1777226994 | 15° C | 48% | 1017.4 hPa | 0 mm | - | 12 W/m² | - |
| 1777226293 | 16.11° C | 42% | 1017.2 hPa | 0 mm | - | 17 W/m² | - |
| 1777225605 | 17.78° C | 48% | 1017 hPa | 0 mm | - | 25 W/m² | - |
| 1777224916 | 20.56° C | 29% | 1016.8 hPa | 0 mm | - | 30 W/m² | - |
| 1777224230 | 21.11° C | 24% | 1016.7 hPa | 0 mm | - | 48 W/m² | - |
| 1777223541 | 22.22° C | 23% | 1016.7 hPa | 0 mm | - | 67 W/m² | - |
| 1777222854 | 22.22° C | 22% | 1016.7 hPa | 0 mm | - | 90 W/m² | - |
| 1777222179 | 22.22° C | 20% | 1016.6 hPa | 0 mm | - | 128 W/m² | - |
| 1777221477 | 23.33° C | 21% | 1016.6 hPa | 0 mm | - | 54 W/m² | - |
* Rain latest hour (hover to see other rain measurements)
** Current wind speed in m/s (hover to see current wind gust speed)